Location: Clinton NY
(43.0598°N, 75.3602°W)
Time: 12:12:25
(UTC-04:00)

Amateur Radio Satellites - All Passes

Search period start: 30 July 2015 11:42
Search period end: 31 July 2015 11:42
Location: Clinton NY, 43.0598°N, 75.3602°W

Satellite Date Start Highest point End Downlink Frequencies (MHz)
Time Altitude Azimuth
O/OREOS (USA 219) 30 Jul 11:45:26 11:49:54 50° 63° (ENE) 11:54:23 437.305
POPSAT HIP 1 30 Jul 11:49:56 11:53:58 45° 261° (W) 11:58:02 437.405
Oscar 11 30 Jul 11:50:11 11:53:26 20° 294° (WNW) 11:56:34 145.826/435.025
UKube-1 30 Jul 11:50:14 11:54:34 71° 102° (ESE) 11:58:52 .
QB50P2 30 Jul 11:57:13 12:01:08 36° 263° (W) 12:05:03 145.880/145.840
TIGRISAT 30 Jul 11:57:19 12:00:18 17° 270° (W) 12:03:10 435.000
ANTELSAT 30 Jul 11:58:18 12:01:10 17° 270° (W) 12:03:55 437.575/2403.000
Cosmos 2491 30 Jul 11:58:52 12:06:22 35° 85° (E) 12:14:02 435.465 / 435.565
HO-68 30 Jul 11:59:25 12:03:55 17° 307° (NW) 12:08:08 435.675
CUBEBUG 1 30 Jul 12:02:43 12:06:42 36° 97° (E) 12:10:42 437.445
BUGSAT 1 30 Jul 12:05:30 12:09:26 47° 261° (W) 12:13:22 437.445
HUMSAT D 30 Jul 12:14:35 12:18:36 37° 289° (WNW) 12:22:34 437.325/437.525
DX 1 30 Jul 12:15:05 12:19:21 56° 287° (WNW) 12:23:35 434.975-435.025
VELOX 1 30 Jul 12:21:16 12:25:42 83° 282° (WNW) 12:30:06 145.980
ESTCUBE 1 30 Jul 12:24:25 12:28:57 75° 102° (ESE) 12:33:25 437.505/2401.250
DUCHIFAT 1 30 Jul 12:25:12 12:28:23 20° 268° (W) 12:31:27 145.980
QB50P1 30 Jul 12:26:59 12:30:02 19° 268° (W) 12:32:59 145.935-145.965
NANOSAT C BR1 30 Jul 12:29:11 12:32:09 18° 268° (W) 12:35:01 145.865
DELFI C3 30 Jul 12:29:45 12:30:37 10° 298° (WNW) 12:31:16 145.870
50 SAT 30 Jul 12:34:25 12:38:13 43° 288° (WNW) 12:41:58 437.505
SPROUT 30 Jul 12:46:54 12:50:48 33° 96° (E) 12:54:41 437.525
ITAMSAT 1 30 Jul 12:53:54 12:54:51 11° 57° (ENE) 12:56:06 435.822/435.867
TISAT 1 30 Jul 13:07:03 13:10:51 33° 97° (E) 13:14:41 437.305
Cosmos 2504 30 Jul 13:07:24 13:14:01 26° 65° (ENE) 13:21:05 435.465 / 435.565
Oscar 19 30 Jul 13:12:04 13:17:00 51° 71° (ENE) 13:22:00 437.125/150
AIST 1 30 Jul 13:15:56 13:20:09 46° 282° (WNW) 13:24:21
AISAT 30 Jul 13:18:49 13:22:12 22° 294° (WNW) 13:25:31 437.250
YUBILEINY 30 Jul 13:21:07 13:29:17 43° 272° (W) 13:37:20 435.215
O/OREOS (USA 219) 30 Jul 13:25:56 13:28:58 17° 259° (W) 13:31:51 437.305
UKube-1 30 Jul 13:28:18 13:30:11 12° 298° (WNW) 13:31:51 .
AO-7 30 Jul 13:30:25 13:33:46 13° 43° (NE) 13:37:31 29.400- 29.500
CUBEBUG 1 30 Jul 13:39:30 13:42:53 22° 293° (WNW) 13:46:08 437.445
Cosmos 2491 30 Jul 13:54:22 14:02:56 54° 285° (WNW) 14:11:27 435.465 / 435.565
Gurwin Techsat 1B 30 Jul 13:54:54 13:59:49 40° 69° (ENE) 14:04:47 435.225
ESTCUBE 1 30 Jul 14:03:17 14:05:16 12° 298° (WNW) 14:07:03 437.505/2401.250
BEESAT 30 Jul 14:22:32 14:26:55 36° 97° (E) 14:31:18 436.000
SPROUT 30 Jul 14:23:16 14:26:43 23° 293° (WNW) 14:30:05 437.525
ITAMSAT 1 30 Jul 14:28:21 14:33:34 73° 73° (ENE) 14:38:47 435.822/435.867
JAS-2 30 Jul 14:32:09 14:37:35 36° 64° (ENE) 14:43:44 435.910
SWISSCUBE 30 Jul 14:42:33 14:47:18 62° 101° (E) 14:52:01 437.505
TISAT 1 30 Jul 14:43:08 14:46:28 23° 293° (WNW) 14:49:43 437.305
CUSAT 1 30 Jul 14:43:45 14:46:26 18° 73° (ENE) 14:49:44 437.405
Oscar 19 30 Jul 14:52:57 14:56:43 20° 269° (W) 15:00:22 437.125/150
Cosmos 2504 30 Jul 14:58:44 15:07:04 73° 266° (W) 15:15:38 435.465 / 435.565
ITUPSAT 1 30 Jul 15:02:31 15:07:21 88° 111° (ESE) 15:12:08 437.325
AO-7 30 Jul 15:16:50 15:24:50 53° 64° (ENE) 15:32:54 29.400- 29.500
STARS 30 Jul 15:25:19 15:28:01 16° 90° (E) 15:30:54 437.465
Gurwin Techsat 1B 30 Jul 15:35:25 15:39:57 27° 267° (W) 15:44:24 435.225
KKS-1 30 Jul 15:46:08 15:50:24 44° 98° (E) 15:54:41 437.445
HORYU 2 30 Jul 15:50:55 15:55:19 65° 74° (ENE) 15:59:46 437.375
DANDE 30 Jul 15:51:19 15:54:44 52° 79° (E) 15:59:16 436.750
Cosmos 2491 30 Jul 16:00:10 16:02:29 11° 311° (NW) 16:04:08 435.465 / 435.565
BEESAT 30 Jul 16:00:38 16:04:38 26° 293° (WNW) 16:08:31 436.000
GONETS M04 30 Jul 16:06:07 16:11:59 20° 59° (ENE) 16:18:15
ITAMSAT 1 30 Jul 16:10:46 16:13:42 14° 272° (W) 16:16:22 435.822/435.867
JAS-2 30 Jul 16:16:56 16:22:35 41° 266° (W) 16:28:55 435.910
SWISSCUBE 30 Jul 16:21:42 16:24:43 16° 297° (WNW) 16:27:33 437.505
MOZHAYETS 4 30 Jul 16:24:07 16:26:38 15° 88° (E) 16:29:20
CUSAT 1 30 Jul 16:25:12 16:28:56 40° 262° (W) 16:33:46 437.405
SO-50 30 Jul 16:42:02 16:43:29 11° 27° (NNE) 16:45:04 436.795
ITUPSAT 1 30 Jul 16:42:41 16:44:35 12° 300° (WNW) 16:46:16 437.325
Cosmos 2504 30 Jul 16:53:49 16:58:05 14° 283° (WNW) 17:01:50 435.465 / 435.565
PCSat 30 Jul 17:00:24 17:02:50 13° 33° (NNE) 17:05:27 145.827
STARS 30 Jul 17:00:30 17:04:47 49° 288° (WNW) 17:09:03 437.465
AO-7 30 Jul 17:10:15 17:17:55 38° 264° (W) 17:25:29 29.400- 29.500
Cosmos 2499 30 Jul 17:11:15 17:14:18 12° 52° (NE) 17:18:01 435.465 / 435.565
CUTE-I 30 Jul 17:22:20 17:26:31 24° 64° (ENE) 17:30:49 437.470
KKS-1 30 Jul 17:23:32 17:26:45 19° 295° (WNW) 17:29:53 437.445
HORYU 2 30 Jul 17:30:26 17:32:29 13° 272° (W) 17:34:18 437.375
DANDE 30 Jul 17:37:02 17:37:51 10° 265° (W) 17:38:26 436.750
MOZHAYETS 4 30 Jul 17:59:44 18:04:19 58° 286° (WNW) 18:08:50
GONETS M04 30 Jul 18:01:33 18:10:19 89° 86° (E) 18:19:05
Cubesat XI-IV 30 Jul 18:04:31 18:09:44 55° 72° (ENE) 18:15:00 437.490
CUBESAT XI-V 30 Jul 18:12:38 18:15:35 17° 90° (E) 18:18:41 437.345
SO-50 30 Jul 18:20:35 18:25:22 45° 49° (NE) 18:30:03 436.795
PCSat 30 Jul 18:42:08 18:47:31 59° 55° (NE) 18:52:52 145.827
HO-68 30 Jul 18:54:45 18:59:11 19° 54° (NE) 19:03:55 435.675
CUTE-I 30 Jul 19:01:08 19:06:20 48° 261° (W) 19:11:31 437.470
Cosmos 2499 30 Jul 19:01:14 19:09:47 58° 76° (ENE) 19:18:32 435.465 / 435.565
VERMONT LUNAR 30 Jul 19:20:00 19:22:24 20° 156° (SSE) 19:24:50 437.305
STRAND 1 30 Jul 19:35:38 19:40:19 36° 97° (E) 19:45:00 437.568
CUTE 1.7 + AOD 2 30 Jul 19:37:25 19:39:49 15° 65° (ENE) 19:42:23 437.475
SEEDS 30 Jul 19:38:11 19:39:54 13° 63° (ENE) 19:41:49 437.485
BRITE-PL 30 Jul 19:41:08 19:45:27 55° 75° (ENE) 19:49:36 437.365/2234.400
CANX-2 30 Jul 19:44:47 19:47:50 20° 66° (ENE) 19:51:01 2200.000
Cubesat XI-IV 30 Jul 19:46:16 19:50:15 20° 269° (W) 19:54:05 437.490
CUBESAT XI-V 30 Jul 19:48:54 19:53:22 49° 288° (WNW) 19:57:47 437.345
DOVE 4 30 Jul 19:58:39 20:02:13 29° 70° (ENE) 20:05:51 437.250
GONETS M04 30 Jul 20:00:22 20:06:07 19° 281° (W) 20:11:24
GOMX 1 30 Jul 20:01:05 20:05:12 51° 74° (ENE) 20:09:16 467.674
SO-50 30 Jul 20:01:35 20:05:43 26° 247° (WSW) 20:09:40 436.795
PRISM 30 Jul 20:03:45 20:07:49 56° 101° (E) 20:11:51 437.425
RS-15 30 Jul 20:06:32 20:11:13 15° 98° (E) 20:16:53 29.354- 29.394
AAUSAT CUBESAT 2 30 Jul 20:07:59 20:10:41 17° 66° (ENE) 20:13:32 437.432
CINEMA 3 30 Jul 20:21:05 20:24:18 23° 68° (ENE) 20:27:40 145.822/145.860
PCSat 30 Jul 20:26:31 20:30:32 21° 253° (WSW) 20:34:24 145.827
HO-68 30 Jul 20:38:53 20:46:02 85° 72° (ENE) 20:53:14 435.675
PHONESAT 2.4 30 Jul 20:42:59 20:45:09 16° 152° (SSE) 20:47:22 2401.200-2431.200
UWE-3 30 Jul 20:51:51 20:54:44 19° 66° (ENE) 20:57:46 435.000/436.395/437.385
FUNcube-1 30 Jul 20:54:54 20:57:17 15° 64° (ENE) 20:59:51 145.935
Cosmos 2499 30 Jul 20:55:00 21:02:36 34° 275° (W) 21:10:08 435.465 / 435.565
VERMONT LUNAR 30 Jul 20:55:41 20:58:47 48° 172° (S) 21:01:52 437.305
COMPASS 1 30 Jul 20:58:46 21:02:57 70° 75° (ENE) 21:07:11 437.405
CUBEBUG 2 30 Jul 21:02:57 21:06:34 30° 69° (ENE) 21:10:19 437.445
Oscar 11 30 Jul 21:09:02 21:12:58 35° 70° (ENE) 21:16:58 145.826/435.025
SEEDS 30 Jul 21:10:58 21:15:11 67° 258° (WSW) 21:19:27 437.485
CUTE 1.7 + AOD 2 30 Jul 21:11:09 21:15:20 54° 260° (W) 21:19:33 437.475
STRAND 1 30 Jul 21:15:01 21:19:25 29° 294° (WNW) 21:23:44 437.568
CANX-2 30 Jul 21:19:30 21:23:31 39° 263° (W) 21:27:34 2200.000
BRITE-PL 30 Jul 21:22:10 21:24:24 13° 270° (W) 21:26:22 437.365/2234.400
HUMSAT D 30 Jul 21:32:54 21:35:28 17° 65° (ENE) 21:38:13 437.325/437.525
AUBIESAT-1 30 Jul 21:36:32 21:38:28 13° 92° (E) 21:40:38 437.475
DOVE 4 30 Jul 21:36:40 21:40:03 23° 266° (W) 21:43:22 437.250
DX 1 30 Jul 21:37:24 21:39:47 15° 63° (ENE) 21:42:19 434.975-435.025
DELFI C3 30 Jul 21:39:44 21:43:39 50° 73° (ENE) 21:47:38 145.870
PRISM 30 Jul 21:40:38 21:42:50 14° 297° (WNW) 21:44:51 437.425
GOMX 1 30 Jul 21:41:34 21:43:45 13° 271° (W) 21:45:43 467.674
AAUSAT CUBESAT 2 30 Jul 21:41:56 21:45:59 44° 262° (W) 21:50:02 437.432
VELOX 1 30 Jul 21:46:51 21:47:56 11° 61° (ENE) 21:49:16 145.980
50 SAT 30 Jul 21:47:44 21:48:23 10° 63° (ENE) 21:49:14 437.505
CINEMA 3 30 Jul 21:57:43 22:01:25 31° 265° (W) 22:05:08 145.822/145.860
ZACube-1 30 Jul 22:06:31 22:10:42 90° 353° (N) 22:15:00 437.345
Cosmos 2491 30 Jul 22:08:04 22:13:20 18° 57° (ENE) 22:19:03 435.465 / 435.565
RS-15 30 Jul 22:10:55 22:21:38 70° 118° (ESE) 22:32:50 29.354- 29.394
PHONESAT 2.4 30 Jul 22:19:19 22:22:39 43° 168° (SSE) 22:26:00 2401.200-2431.200
ISS 30 Jul 22:19:29 22:22:43 68° 144° (SE) 22:25:58 145.825
UWE-3 30 Jul 22:27:02 22:31:00 40° 263° (W) 22:35:02 435.000/436.395/437.385
FUNcube-1 30 Jul 22:29:08 22:33:13 51° 261° (W) 22:37:24 145.935
HO-68 30 Jul 22:29:59 22:34:45 18° 272° (W) 22:39:11 435.675
VERMONT LUNAR 30 Jul 22:32:15 22:35:20 46° 189° (S) 22:38:23 437.305
M-CUBED/EXP-1 PRIME 30 Jul 22:37:58 22:42:45 61° 106° (ESE) 22:47:26 437.505
COMPASS 1 30 Jul 22:38:20 22:39:11 10° 273° (W) 22:39:47 437.405
CUBEBUG 2 30 Jul 22:39:54 22:43:19 24° 267° (W) 22:46:44 437.445
AISAT 30 Jul 22:40:19 22:44:24 39° 70° (ENE) 22:48:31 437.250
UKube-1 30 Jul 22:45:41 22:49:58 68° 74° (ENE) 22:54:17 .
Oscar 11 30 Jul 22:45:52 22:49:15 22° 267° (W) 22:52:35 145.826/435.025
CUBEBUG 1 30 Jul 22:59:44 23:03:39 34° 70° (ENE) 23:07:37 437.445
UNISAT 6 30 Jul 23:02:11 23:06:23 33° 96° (E) 23:10:39 437.425
HUMSAT D 30 Jul 23:06:54 23:10:53 45° 262° (W) 23:14:55 437.325/437.525
AUBIESAT-1 30 Jul 23:08:58 23:13:46 77° 290° (WNW) 23:18:26 437.475
DX 1 30 Jul 23:11:20 23:15:37 58° 260° (W) 23:19:54 434.975-435.025
DELFI C3 30 Jul 23:16:55 23:19:05 14° 271° (W) 23:21:04 145.870
POLYITAN 1 30 Jul 23:17:06 23:19:54 17° 91° (E) 23:22:50 437.675
50 SAT 30 Jul 23:18:35 23:22:26 69° 258° (WSW) 23:26:22 437.505
VELOX 1 30 Jul 23:19:28 23:23:54 84° 257° (WSW) 23:28:20 145.980
AIST 1 30 Jul 23:21:58 23:26:04 43° 77° (ENE) 23:30:08
ESTCUBE 1 30 Jul 23:24:40 23:29:12 77° 77° (ENE) 23:33:46 437.505/2401.250
POPSAT HIP 1 30 Jul 23:34:16 23:37:49 26° 94° (E) 23:41:25 437.405
QB50P2 30 Jul 23:41:20 23:45:08 32° 96° (E) 23:48:59 145.880/145.840
SPROUT 30 Jul 23:42:05 23:45:45 29° 69° (ENE) 23:49:29 437.525
TIGRISAT 30 Jul 23:45:52 23:50:34 88° 97° (E) 23:55:18 435.000
ANTELSAT 30 Jul 23:46:58 23:51:41 87° 284° (WNW) 23:56:25 437.575/2403.000
BUGSAT 1 30 Jul 23:47:04 23:50:09 21° 93° (E) 23:53:21 437.445
ISS 30 Jul 23:56:35 23:59:23 26° 343° (NNW) 00:02:12 145.825
PHONESAT 2.4 30 Jul 23:56:59 00:00:25 55° 184° (S) 00:03:51 2401.200-2431.200
BEESAT 2 30 Jul 23:57:00 00:00:32 29° 115° (ESE) 00:04:07 435.950
TISAT 1 31 Jul 00:00:12 00:03:45 28° 69° (ENE) 00:07:23 437.305
Cosmos 2491 31 Jul 00:03:11 00:11:56 81° 81° (E) 00:20:40 435.465 / 435.565
DUCHIFAT 1 31 Jul 00:07:27 00:11:39 58° 100° (E) 00:15:49 145.980
VERMONT LUNAR 31 Jul 00:09:22 00:11:41 19° 205° (SSW) 00:13:57 437.305
QB50P1 31 Jul 00:09:29 00:13:43 64° 101° (E) 00:17:56 145.935-145.965
NANOSAT C BR1 31 Jul 00:11:22 00:15:36 66° 102° (ESE) 00:19:49 145.865
M-CUBED/EXP-1 PRIME 31 Jul 00:13:43 00:17:04 19° 302° (WNW) 00:20:17 437.505
SWISSCUBE 31 Jul 00:16:56 00:17:29 10° 59° (ENE) 00:18:18 437.505
AISAT 31 Jul 00:17:49 00:21:09 20° 268° (W) 00:24:23 437.250
RS-15 31 Jul 00:24:35 00:34:56 42° 324° (NW) 00:45:36 29.354- 29.394
UKube-1 31 Jul 00:25:10 00:26:39 11° 272° (W) 00:27:52 .
YUBILEINY 31 Jul 00:26:09 00:34:20 49° 89° (E) 00:42:40 435.215
ITUPSAT 1 31 Jul 00:35:05 00:37:32 14° 61° (ENE) 00:40:11 437.325
CUBEBUG 1 31 Jul 00:36:37 00:40:06 22° 267° (W) 00:43:30 437.445
BEESAT 3 31 Jul 00:38:30 00:42:34 81° 303° (WNW) 00:46:42 437.485
UNISAT 6 31 Jul 00:39:05 00:43:04 28° 292° (WNW) 00:47:01 437.425
AUBIESAT-1 31 Jul 00:46:07 00:47:43 11° 306° (NW) 00:49:04 437.475
POLYITAN 1 31 Jul 00:51:58 00:56:02 43° 288° (WNW) 01:00:05 437.675
AIST 1 31 Jul 01:00:46 01:03:23 16° 273° (W) 01:05:49
ESTCUBE 1 31 Jul 01:05:30 01:06:43 11° 273° (W) 01:07:39 437.505/2401.250
POPSAT HIP 1 31 Jul 01:09:58 01:13:40 29° 291° (WNW) 01:17:20 437.405
QB50P2 31 Jul 01:17:27 01:20:55 24° 292° (WNW) 01:24:18 145.880/145.840
SPROUT 31 Jul 01:18:14 01:21:50 25° 266° (W) 01:25:22 437.525
AIST 2 31 Jul 01:19:05 01:23:10 48° 119° (ESE) 01:27:18 435.215
BUGSAT 1 31 Jul 01:22:04 01:25:43 32° 290° (WNW) 01:29:19 437.445
Oscar 19 31 Jul 01:23:43 01:26:55 17° 89° (E) 01:30:21 437.125/150
TIGRISAT 31 Jul 01:24:59 01:26:42 12° 299° (WNW) 01:28:12 435.000
ANTELSAT 31 Jul 01:26:25 01:27:49 11° 299° (WNW) 01:28:58 437.575/2403.000
BEESAT 31 Jul 01:29:45 01:34:18 46° 71° (ENE) 01:38:55 436.000
ISS 31 Jul 01:34:15 01:36:35 18° 3° (N) 01:38:56 145.825
BEESAT 2 31 Jul 01:34:50 01:38:32 31° 313° (NW) 01:42:13 435.950
PHONESAT 2.4 31 Jul 01:35:01 01:38:06 28° 200° (SSW) 01:41:08 2401.200-2431.200
TISAT 1 31 Jul 01:36:01 01:39:31 25° 266° (W) 01:42:58 437.305
Cosmos 2504 31 Jul 01:42:51 01:46:13 15° 77° (ENE) 01:50:09 435.465 / 435.565
DUCHIFAT 1 31 Jul 01:44:42 01:47:02 14° 296° (WNW) 01:49:12 145.980
QB50P1 31 Jul 01:47:02 01:49:07 13° 297° (WNW) 01:51:02 145.935-145.965
NANOSAT C BR1 31 Jul 01:48:59 01:50:57 13° 297° (WNW) 01:52:45 145.865
SWISSCUBE 31 Jul 01:49:49 01:54:37 79° 75° (ENE) 01:59:27 437.505
O/OREOS (USA 219) 31 Jul 01:58:36 02:02:53 48° 108° (ESE) 02:07:15 437.305
Cosmos 2491 31 Jul 02:01:37 02:07:54 22° 280° (W) 02:13:47 435.465 / 435.565
ITUPSAT 1 31 Jul 02:10:05 02:14:54 74° 258° (WSW) 02:19:44 437.325
Gurwin Techsat 1B 31 Jul 02:11:29 02:14:11 14° 87° (E) 02:17:10 435.225
BEESAT 3 31 Jul 02:19:18 02:21:14 13° 325° (NW) 02:23:02 437.485
YUBILEINY 31 Jul 02:23:23 02:31:25 39° 290° (WNW) 02:39:24 435.215
STARS 31 Jul 02:23:28 02:26:15 17° 64° (ENE) 02:29:10 437.465
ITAMSAT 1 31 Jul 02:40:57 02:45:01 24° 93° (E) 02:49:11 435.822/435.867
RS-15 31 Jul 02:42:42 02:51:28 24° 357° (N) 03:00:31 29.354- 29.394
KKS-1 31 Jul 02:45:06 02:49:19 45° 71° (ENE) 02:53:34 437.445
AIST 2 31 Jul 02:58:36 03:01:59 22° 317° (NW) 03:05:20 435.215
Oscar 19 31 Jul 03:01:40 03:06:47 62° 287° (WNW) 03:11:53 437.125/150
BEESAT 31 Jul 03:08:51 03:12:25 20° 268° (W) 03:15:53 436.000
ISS 31 Jul 03:10:41 03:13:42 34° 22° (NNE) 03:16:43 145.825
AO-7 31 Jul 03:20:01 03:23:26 13° 84° (E) 03:27:29 29.400- 29.500
JAS-2 31 Jul 03:24:07 03:31:02 35° 92° (E) 03:38:02 435.910
MOZHAYETS 4 31 Jul 03:27:08 03:30:02 17° 64° (ENE) 03:33:05
Cosmos 2504 31 Jul 03:30:09 03:37:14 86° 97° (E) 03:44:54 435.465 / 435.565
SWISSCUBE 31 Jul 03:31:25 03:33:10 11° 273° (W) 03:34:36 437.505
O/OREOS (USA 219) 31 Jul 03:39:19 03:42:38 19° 307° (NW) 03:45:52 437.305
HORYU 2 31 Jul 03:43:23 03:44:51 12° 88° (E) 03:46:34 437.375
Gurwin Techsat 1B 31 Jul 03:49:31 03:54:51 74° 287° (WNW) 04:00:08 435.225
STARS 31 Jul 03:58:07 04:02:21 49° 261° (W) 04:06:36 437.465
ITAMSAT 1 31 Jul 04:19:50 04:24:46 44° 290° (WNW) 04:29:39 435.822/435.867
KKS-1 31 Jul 04:23:11 04:26:13 18° 269° (W) 04:29:08 437.445
ISS 31 Jul 04:47:05 04:50:10 38° 220° (SW) 04:53:13 145.825
RS-15 31 Jul 04:58:08 05:08:28 36° 30° (NNE) 05:19:21 29.354- 29.394
MOZHAYETS 4 31 Jul 05:02:17 05:06:51 56° 260° (W) 05:11:27
DANDE 31 Jul 05:05:31 05:08:54 65° 99° (E) 05:11:41 436.750
JAS-2 31 Jul 05:08:45 05:16:20 56° 291° (WNW) 05:23:52 435.910
AO-7 31 Jul 05:09:34 05:17:56 72° 105° (ESE) 05:26:14 29.400- 29.500
GONETS M04 31 Jul 05:10:14 05:16:00 21° 80° (E) 05:22:10
CUBESAT XI-V 31 Jul 05:17:00 05:20:20 20° 66° (ENE) 05:23:48 437.345
HORYU 2 31 Jul 05:17:33 05:22:04 71° 286° (WNW) 05:26:32 437.375
Cosmos 2504 31 Jul 05:25:48 05:30:45 18° 301° (WNW) 05:35:36 435.465 / 435.565
Gurwin Techsat 1B 31 Jul 05:32:26 05:34:01 11° 303° (WNW) 05:35:18 435.225
CUSAT 1 31 Jul 05:36:00 05:38:16 20° 285° (WNW) 05:40:20 437.405
Cubesat XI-IV 31 Jul 06:21:42 06:25:30 20° 91° (E) 06:29:26 437.490
STRAND 1 31 Jul 06:52:15 06:57:16 58° 72° (ENE) 07:02:21 437.568
CUBESAT XI-V 31 Jul 06:52:58 06:57:30 46° 262° (W) 07:02:00 437.345
PRISM 31 Jul 06:54:23 06:58:24 47° 72° (ENE) 07:02:27 437.425
JAS-2 31 Jul 06:56:31 06:59:56 13° 309° (NW) 07:02:57 435.910
GONETS M04 31 Jul 07:03:12 07:11:56 82° 279° (W) 07:20:41
AO-7 31 Jul 07:03:13 07:10:09 29° 304° (NW) 07:16:49 29.400- 29.500
RS-15 31 Jul 07:10:50 07:22:39 90° 237° (WSW) 07:34:55 29.354- 29.394
CUTE-I 31 Jul 07:17:01 07:22:19 63° 101° (E) 07:27:35 437.470
BEESAT 3 31 Jul 07:19:50 07:21:34 12° 35° (NE) 07:23:24 437.485
Cosmos 2499 31 Jul 07:39:32 07:46:16 42° 88° (E) 07:53:38 435.465 / 435.565
BRITE-PL 31 Jul 07:45:12 07:47:46 16° 91° (E) 07:50:36 437.365/2234.400
M-CUBED/EXP-1 PRIME 31 Jul 07:55:55 07:56:44 11° 53° (NE) 07:57:47 437.505
Cubesat XI-IV 31 Jul 08:00:48 08:06:01 54° 289° (WNW) 08:11:10 437.490
GOMX 1 31 Jul 08:02:19 08:04:44 15° 90° (E) 08:07:25 467.674
HO-68 31 Jul 08:07:53 08:11:17 14° 85° (E) 08:15:10 435.675
BEESAT 2 31 Jul 08:14:53 08:18:22 26° 45° (NE) 08:21:50 435.950
AUBIESAT-1 31 Jul 08:24:17 08:27:01 18° 58° (ENE) 08:29:59 437.475
PRISM 31 Jul 08:31:32 08:34:08 15° 269° (W) 08:36:35 437.425
STRAND 1 31 Jul 08:33:23 08:36:56 18° 270° (W) 08:40:17 437.568
SO-50 31 Jul 08:39:50 08:40:32 10° 107° (ESE) 08:41:32 436.795
COMPASS 1 31 Jul 08:43:53 08:44:42 11° 87° (E) 08:45:46 437.405
SEEDS 31 Jul 08:55:10 08:58:10 19° 91° (E) 09:01:16 437.485
CUTE 1.7 + AOD 2 31 Jul 08:55:50 08:59:17 24° 93° (E) 09:02:48 437.475
BEESAT 3 31 Jul 08:56:08 09:00:13 81° 58° (ENE) 09:04:13 437.485
CUTE-I 31 Jul 08:58:13 09:01:57 19° 298° (WNW) 09:05:31 437.470
CANX-2 31 Jul 09:03:44 09:07:37 32° 96° (E) 09:11:29 2200.000
GONETS M04 31 Jul 09:04:39 09:10:27 18° 303° (WNW) 09:15:51
ANTELSAT 31 Jul 09:14:35 09:15:02 10° 60° (ENE) 09:15:44 437.575/2403.000
BRITE-PL 31 Jul 09:22:24 09:26:37 50° 286° (WNW) 09:31:05 437.365/2234.400
AAUSAT CUBESAT 2 31 Jul 09:24:06 09:27:37 26° 94° (E) 09:31:09 437.432
PCSat 31 Jul 09:24:46 09:29:51 44° 114° (ESE) 09:35:00 145.827
RS-15 31 Jul 09:24:47 09:33:55 25° 257° (WSW) 09:42:41 29.354- 29.394
M-CUBED/EXP-1 PRIME 31 Jul 09:26:45 09:30:45 87° 68° (ENE) 09:35:09 437.505
Cosmos 2499 31 Jul 09:32:36 09:39:31 39° 290° (WNW) 09:46:52 435.465 / 435.565
DOVE 4 31 Jul 09:32:38 09:37:12 76° 101° (E) 09:42:03 437.250
GOMX 1 31 Jul 09:38:51 09:43:14 58° 286° (WNW) 09:47:55 467.674
AIST 2 31 Jul 09:39:53 09:43:55 42° 50° (NE) 09:47:53 435.215
CINEMA 3 31 Jul 09:50:12 09:54:46 53° 99° (E) 09:59:31 145.822/145.860
BEESAT 2 31 Jul 09:52:46 09:56:27 33° 244° (WSW) 10:00:04 435.950
HO-68 31 Jul 09:53:01 10:00:15 82° 105° (ESE) 10:07:28 435.675
ZACube-1 31 Jul 09:54:54 09:57:52 17° 90° (E) 10:01:00 437.345
AUBIESAT-1 31 Jul 09:57:23 10:01:19 50° 256° (WSW) 10:05:34 437.475
UNISAT 6 31 Jul 10:02:19 10:06:07 31° 69° (ENE) 10:10:04 437.425
POLYITAN 1 31 Jul 10:11:40 10:14:07 16° 65° (ENE) 10:16:44 437.675
UWE-3 31 Jul 10:15:23 10:19:37 36° 97° (E) 10:23:56 435.000/436.395/437.385
SO-50 31 Jul 10:15:35 10:20:20 85° 125° (SE) 10:25:17 436.795
FUNcube-1 31 Jul 10:16:26 10:20:18 28° 94° (E) 10:24:17 145.935
COMPASS 1 31 Jul 10:16:41 10:20:55 69° 285° (WNW) 10:25:05 437.405
POPSAT HIP 1 31 Jul 10:28:18 10:31:31 22° 67° (ENE) 10:34:51 437.405
CUBEBUG 2 31 Jul 10:28:25 10:33:01 63° 101° (E) 10:37:42 437.445
O/OREOS (USA 219) 31 Jul 10:29:30 10:31:57 14° 49° (NE) 10:34:34 437.305
SEEDS 31 Jul 10:30:08 10:34:08 39° 289° (WNW) 10:38:05 437.485
Oscar 11 31 Jul 10:30:57 10:35:18 63° 100° (E) 10:39:37 145.826/435.025
CUTE 1.7 + AOD 2 31 Jul 10:31:24 10:35:14 31° 290° (WNW) 10:39:01 437.475
YUBILEINY 31 Jul 10:35:14 10:42:09 26° 63° (ENE) 10:49:19 435.215
UKube-1 31 Jul 10:35:16 10:35:41 10° 87° (E) 10:36:22 .
QB50P2 31 Jul 10:35:20 10:38:52 27° 69° (ENE) 10:42:29 145.880/145.840
BUGSAT 1 31 Jul 10:38:38 10:41:19 18° 66° (ENE) 10:44:06 437.445
CANX-2 31 Jul 10:39:54 10:43:24 24° 292° (WNW) 10:46:49 2200.000
TIGRISAT 31 Jul 10:45:29 10:49:49 85° 77° (ENE) 10:54:17 435.000
ANTELSAT 31 Jul 10:46:48 10:51:09 89° 256° (WSW) 10:55:38 437.575/2403.000
HUMSAT D 31 Jul 10:49:59 10:53:37 26° 94° (E) 10:57:18 437.325/437.525
DELFI C3 31 Jul 10:52:31 10:56:36 76° 102° (ESE) 11:00:39 145.870
50 SAT 31 Jul 10:54:40 10:56:21 13° 89° (E) 10:58:14 437.505
DX 1 31 Jul 10:59:15 11:02:35 22° 93° (E) 11:05:59 434.975-435.025
AAUSAT CUBESAT 2 31 Jul 10:59:33 11:03:11 28° 291° (WNW) 11:06:45 437.432
DUCHIFAT 1 31 Jul 11:00:34 11:04:34 47° 73° (ENE) 11:08:37 145.980
QB50P1 31 Jul 11:02:57 11:07:01 53° 73° (ENE) 11:11:07 145.935-145.965
NANOSAT C BR1 31 Jul 11:04:36 11:08:40 54° 73° (ENE) 11:12:48 145.865
PCSat 31 Jul 11:08:38 11:13:26 31° 312° (NW) 11:18:14 145.827
VELOX 1 31 Jul 11:10:03 11:12:51 17° 91° (E) 11:15:50 145.980
DOVE 4 31 Jul 11:12:24 11:14:31 13° 296° (WNW) 11:16:29 437.250
Cosmos 2491 31 Jul 11:12:39 11:17:53 19° 79° (ENE) 11:23:34 435.465 / 435.565
ESTCUBE 1 31 Jul 11:17:51 11:20:20 15° 89° (E) 11:23:01 437.505/2401.250
AIST 2 31 Jul 11:19:06 11:22:13 20° 247° (WSW) 11:25:12 435.215
CINEMA 3 31 Jul 11:28:25 11:31:39 18° 294° (WNW) 11:34:48 145.822/145.860
ZACube-1 31 Jul 11:30:08 11:34:30 49° 288° (WNW) 11:38:55 437.345
